Location: Newark
(31.5350°N, 35.0986°E)
Time: 04:55:12
(UTC+00:00)

Tiros 1 despin weight - All Passes

Search period start: 18 September 2019 00:00
Search period end: 28 September 2019 00:00
Orbit: 594 x 642 km, 48.2° (Epoch: 17 September)

Date Brightness Start Highest point End Pass type
(mag) Time Alt. Az. Time Alt. Az. Time Alt. Az.
18 Sep - 08:28:34 10° S 08:31:37 18° SE 08:34:40 10° E daylight
18 Sep - 10:08:20 10° WSW 10:12:51 62° NW 10:17:18 10° NE daylight
18 Sep - 11:52:25 10° WNW 11:55:04 15° NNW 11:57:43 10° NNE daylight
18 Sep - 15:18:42 10° NNW 15:21:23 16° NNE 15:24:03 10° ENE daylight
18 Sep - 16:59:11 10° NW 17:03:34 66° NE 17:07:57 10° ESE visible
18 Sep - 18:42:05 10° W 18:44:43 16° SW 18:47:21 10° SSW visible
19 Sep - 08:43:45 10° SSW 08:48:00 39° SE 08:52:13 10° ENE daylight
19 Sep - 10:25:30 10° W 10:29:35 32° NNW 10:33:37 10° NNE daylight
19 Sep - 12:11:00 10° NNW 12:12:14 11° NNW 12:13:29 10° N daylight
19 Sep - 15:34:45 10° NNW 15:38:23 24° NNE 15:42:00 10° E daylight
19 Sep - 17:15:49 10° WNW 17:20:09 56° SW 17:24:27 10° SE visible
20 Sep - 07:22:19 10° SE 07:23:28 11° SE 07:24:37 10° ESE daylight
20 Sep - 08:59:56 10° SW 09:04:30 87° SE 09:09:02 10° NE daylight
20 Sep - 10:43:12 10° WNW 10:46:30 19° NNW 10:49:46 10° NNE daylight
20 Sep - 14:10:47 10° N 14:12:46 13° NNE 14:14:44 10° NE daylight
20 Sep - 15:50:59 10° NW 15:55:13 43° NE 15:59:25 10° ESE daylight
20 Sep - 17:32:58 10° WNW 17:36:34 25° SW 17:40:09 10° S visible
21 Sep - 07:36:02 10° S 07:39:47 25° SE 07:43:31 10° ENE daylight
21 Sep - 09:16:46 10° WSW 09:21:09 46° NW 09:25:31 10° NE daylight
21 Sep - 11:01:24 10° NW 11:03:34 13° NNW 11:05:45 10° NNE daylight
21 Sep - 14:26:43 10° NNW 14:29:51 19° NNE 14:32:59 10° ENE daylight
21 Sep - 16:07:26 10° NW 16:11:53 90° SSW 16:16:17 10° SE visible
21 Sep - 17:51:58 10° WSW 17:52:52 11° SW 17:53:46 10° SW visible
22 Sep - 07:51:44 10° SSW 07:56:13 55° SE 08:00:40 10° ENE daylight
22 Sep - 09:34:09 10° W 09:37:58 26° NNW 09:41:45 10° NNE daylight
22 Sep - 13:03:02 10° N 13:04:06 11° NNE 13:05:10 10° NNE daylight
22 Sep - 14:42:51 10° NNW 14:46:48 30° NNE 14:50:43 10° E daylight
22 Sep - 16:24:15 10° WNW 16:28:23 39° SW 16:32:29 10° SSE visible
23 Sep - 06:28:48 10° SSE 06:31:37 16° SE 06:34:23 10° E daylight
23 Sep - 08:08:12 10° WSW 08:12:47 69° NW 08:17:19 10° NE daylight
23 Sep - 09:52:03 10° WNW 09:54:57 16° NNW 09:57:50 10° NNE daylight
23 Sep - 13:18:44 10° NNW 13:21:17 15° NNE 13:23:49 10° NE daylight
23 Sep - 14:59:10 10° NW 15:03:33 59° NE 15:07:53 10° ESE daylight
23 Sep - 16:41:47 10° W 16:44:44 18° SW 16:47:40 10° S visible
24 Sep - 06:43:46 10° SSW 06:47:58 35° SE 06:52:07 10° ENE daylight
24 Sep - 08:25:16 10° W 08:29:30 35° NNW 08:33:41 10° NE daylight
24 Sep - 10:10:28 10° NW 10:12:06 12° NNW 10:13:44 10° N daylight
24 Sep - 13:34:46 10° NNW 13:38:19 23° NNE 13:41:49 10° E daylight
24 Sep - 15:15:45 10° NW 15:20:08 64° SW 15:24:29 10° SE daylight
25 Sep - 06:59:50 10° SW 07:04:26 78° SE 07:09:01 10° NE daylight
25 Sep - 08:42:53 10° WNW 08:46:23 21° NNW 08:49:52 10° NNE daylight
25 Sep - 12:10:48 10° N 12:12:39 12° NNE 12:14:28 10° NE daylight
25 Sep - 13:50:59 10° NW 13:55:10 39° NE 13:59:19 10° ESE daylight
25 Sep - 15:32:47 10° WNW 15:36:34 28° SW 15:40:20 10° S daylight
26 Sep - 05:36:09 10° S 05:39:45 22° SE 05:43:20 10° E daylight
26 Sep - 07:16:34 10° WSW 07:21:05 51° NW 07:25:32 10° NE daylight
26 Sep - 09:00:58 10° NW 09:03:26 14° NNW 09:05:53 10° NNE daylight
26 Sep - 12:26:43 10° NNW 12:29:46 18° NNE 12:32:47 10° ENE daylight
26 Sep - 14:07:23 10° NW 14:11:51 81° NE 14:16:15 10° SE daylight
26 Sep - 15:51:07 10° WSW 15:52:53 12° SW 15:54:39 10° SSW visible
27 Sep - 05:51:41 10° SSW 05:56:09 49° SE 06:00:36 10° ENE daylight
27 Sep - 07:33:52 10° W 07:37:52 28° NNW 07:41:49 10° NNE daylight
27 Sep - 09:19:39 10° NNW 09:20:38 11° N 09:21:37 10° N daylight
27 Sep - 11:03:03 10° N 11:03:57 11° N 11:04:53 10° NNE daylight
27 Sep - 12:42:50 10° NNW 12:46:43 28° NNE 12:50:33 10° E daylight
27 Sep - 14:24:08 10° WNW 14:28:22 45° SW 14:32:34 10° SSE daylight
